Regional Weather Roundup
Issued by NWS

Home | Current Version | Previous Version | Graphics & Text | Print | Product List | Glossary On
Versions: 1 2 3 4 5 6 7 8 9 10 11 12 13 14 15 16 17 18 19 20 21 22 23 24 25 26 27 28 29 30 31 32 33 34 35 36 37 38 39 40 41 42 43 44 45 46 47 48 49 50
000
ASUS43 KLMK 052210
RWRKY
KENTUCKY REGIONAL WEATHER ROUNDUP
NATIONAL WEATHER SERVICE LOUISVILLE KY
600 PM EDT SUN JUL 05 2015

NOTE "FAIR" INDICATES FEW OR NO CLOUDS BELOW 12,000 FEET
WITH NO SIGNIFICANT WEATHER AND/OR OBSTRUCTIONS TO VISIBILITY.

KYZ001>023-026-027-061>063-070>075-052300-
WESTERN AND SOUTH CENTRAL KENTUCKY

CITY           SKY/WX    TMP DP  RH WIND       PRES   REMARKS
PADUCAH        SUNNY     86  64  47 CALM      30.03F
HENDERSON      CLOUDY    84  70  61 W6        30.02F
OWENSBORO      SUNNY     87  67  51 SW3       30.04F HX  90
HOPKINSVILLE   SUNNY     84  63  50 W7        30.03F
BOWLING GREEN  PTSUNNY   84  68  58 W5        30.03F
GLASGOW        MOSUNNY   82  65  58 N5        30.05S
$$

KYZ024-025-028>034-038-045-046-053-052300-
NORTH CENTRAL KENTUCKY

CITY           SKY/WX    TMP DP  RH WIND       PRES   REMARKS
LOUISVILLE/SDF PTSUNNY   81  64  56 E6        30.06F
LOUISVILLE/LOU PTSUNNY   80  62  54 E5        30.07F
FORT KNOX      CLOUDY    78  67  68 NE7       30.06S
$$

KYZ035>037-039>044-047>052-055>060-089>105-052300-
NORTHEAST KENTUCKY

CITY           SKY/WX    TMP DP  RH WIND       PRES   REMARKS
LEXINGTON      PTSUNNY   77  66  68 N8        30.07F
COVINGTON      CLOUDY    78  60  53 NW5       30.08F
FRANKFORT      PTSUNNY   78  65  63 NE6       30.06F
$$

KYZ054-064>069-076>088-106>120-052300-
SOUTHEAST KENTUCKY

CITY           SKY/WX    TMP DP  RH WIND       PRES   REMARKS
JACKSON        CLOUDY    70  67  90 VRB5      30.06F
LONDON         PTSUNNY   75  64  68 N7        30.07S
SOMERSET       LGT RAIN  70  70 100 CALM      30.08S
MIDDLESBORO    HVY RAIN  71  70  96 W5        30.05S
MONTICELLO     MOCLDY    73  73 100 E10       30.10S FOG
$$



USA.gov is the U.S. government's official web portal to all federal, state and local government web resources and services.